Total_Precipitation_Accumulation
0.02 0.04 0.04 0.06 0.08 0.06 0.08 0.12 0.16 0.18 0.16 0.20 0.34 0.60 0.86 0.99 1.31 1.27 1.28 1.45 1.58 1.70 2.02 2.43 2.74 3.29 3.90 4.32 4.71 4.88 4.90 4.81 4.64 4.31 4.00 3.76 3.52 3.31 3.04 2.86 2.77 2.69 2.59 2.81
0.03 0.06 0.04 0.05 0.06 0.07 0.09 0.13 0.15 0.20 0.20 0.27 0.46 0.68 0.97 1.01 1.09 1.14 1.06 1.14 1.32 1.67 1.94 2.45 2.77 2.99 3.44 3.94 4.40 4.72 4.90 4.77 4.39 4.04 3.87 3.76 3.73 3.34 3.05 3.02 3.16 2.97 2.97 3.02
0.04 0.05 0.04 0.05 0.05 0.08 0.12 0.13 0.15 0.15 0.20 0.38 0.51 0.96 1.20 1.07 1.03 1.06 1.07 1.15 1.33 1.75 2.21 2.48 2.67 2.84 3.11 3.49 3.78 3.90 4.08 4.05 3.89 3.94 3.96 3.91 3.94 3.53 3.46 3.46 3.47 3.24 3.23 3.24
0.03 0.03 0.04 0.06 0.07 0.10 0.14 0.11 0.10 0.12 0.22 0.48 0.56 1.19 1.54 1.28 1.18 1.29 1.33 1.30 1.57 1.84 1.85 2.03 2.34 2.64 2.81 3.04 3.35 3.59 3.67 3.63 3.55 3.66 3.73 3.63 3.46 3.33 3.49 3.78 3.71 3.42 3.20 3.05
0.03 0.04 0.05 0.07 0.07 0.08 0.11 0.10 0.11 0.15 0.26 0.45 0.57 0.93 1.44 1.41 1.49 1.48 1.41 1.47 1.74 1.71 1.61 1.72 1.93 2.25 2.36 2.64 2.91 3.17 3.47 3.57 3.50 3.57 3.54 3.57 3.43 3.43 3.49 3.49 3.51 3.31 3.11 2.79
0.04 0.05 0.05 0.05 0.05 0.07 0.08 0.12 0.21 0.29 0.44 0.79 0.62 0.70 1.23 1.40 1.29 1.23 1.28 1.30 1.48 1.45 1.43 1.64 1.82 2.10 2.23 2.31 2.42 2.56 2.81 3.09 3.25 3.30 3.28 3.33 3.29 3.27 3.23 3.20 3.06 2.84 2.68 2.48
0.09 0.10 0.09 0.06 0.07 0.09 0.09 0.20 0.61 0.99 1.16 1.17 0.63 0.69 1.18 1.13 1.04 1.01 1.15 1.21 1.23 1.18 1.15 1.39 1.56 1.72 1.91 2.02 2.06 2.16 2.40 2.72 2.86 2.85 2.84 2.97 3.06 3.07 3.01 2.99 2.83 2.59 2.35 2.11
0.17 0.23 0.13 0.08 0.09 0.10 0.12 0.18 0.53 0.86 0.95 0.97 0.79 1.14 1.56 1.13 0.98 1.01 1.06 1.07 1.01 0.94 0.90 1.07 1.35 1.65 1.83 1.80 1.84 1.95 2.20 2.44 2.53 2.47 2.59 2.83 2.93 3.00 2.93 2.96 2.64 2.37 2.17 2.08
0.12 0.12 0.09 0.09 0.12 0.12 0.13 0.15 0.22 0.40 0.49 0.75 1.01 1.26 1.28 0.83 0.78 0.85 0.91 0.92 1.00 0.96 0.90 1.00 1.10 1.32 1.44 1.49 1.56 1.71 2.12 2.39 2.49 2.56 2.68 2.76 2.86 2.84 2.81 2.68 2.41 2.17 2.20 2.14
0.07 0.08 0.09 0.09 0.10 0.12 0.12 0.15 0.21 0.30 0.52 0.81 1.02 1.28 1.38 1.00 0.81 0.61 0.57 0.64 0.66 0.70 0.74 0.81 0.87 0.98 1.08 1.28 1.55 1.73 1.89 2.19 2.30 2.39 2.53 2.55 2.76 2.68 2.52 2.42 2.18 2.00 1.92 1.99
0.08 0.07 0.09 0.11 0.13 0.15 0.15 0.15 0.17 0.23 0.34 0.58 1.04 1.23 0.96 0.79 0.65 0.61 0.60 0.67 0.65 0.66 0.65 0.69 0.84 0.97 1.08 1.23 1.44 1.55 1.58 1.76 1.90 2.01 2.21 2.21 2.24 2.33 2.39 2.22 1.95 1.86 1.87 1.95
0.07 0.06 0.09 0.15 0.21 0.18 0.15 0.13 0.17 0.23 0.23 0.33 0.61 0.84 0.63 0.68 0.67 0.59 0.65 0.74 0.82 0.81 0.72 0.76 0.94 1.08 1.15 1.28 1.31 1.34 1.40 1.56 1.73 1.89 2.09 2.19 2.18 2.23 2.25 2.11 1.91 1.87 1.91 1.97
0.08 0.08 0.14 0.33 0.44 0.29 0.18 0.14 0.15 0.17 0.15 0.25 0.51 0.77 0.53 0.49 0.60 0.77 1.13 1.33 1.07 0.88 0.80 0.86 0.97 1.02 1.01 1.10 1.21 1.23 1.21 1.39 1.58 1.79 2.11 2.29 2.34 2.29 2.21 2.04 1.82 1.75 1.76 1.85
0.13 0.09 0.14 0.35 0.49 0.40 0.28 0.19 0.15 0.12 0.16 0.21 0.31 0.62 0.56 0.53 0.62 0.84 1.07 1.00 0.94 0.86 0.80 0.91 0.93 1.05 1.01 0.97 1.06 1.06 1.10 1.24 1.50 1.71 1.90 2.00 1.92 1.87 1.90 1.82 1.68 1.62 1.63 1.69
0.17 0.12 0.09 0.14 0.25 0.28 0.26 0.24 0.20 0.16 0.13 0.24 0.31 0.44 0.52 0.56 0.70 0.91 1.08 1.06 0.99 0.81 0.71 0.79 0.80 0.87 0.92 1.01 1.08 0.97 0.99 1.06 1.22 1.41 1.52 1.65 1.64 1.62 1.60 1.67 1.71 1.72 1.80 1.77
0.23 0.22 0.17 0.18 0.22 0.27 0.29 0.27 0.20 0.15 0.13 0.18 0.27 0.43 0.55 0.63 0.75 0.89 0.90 0.79 0.71 0.63 0.52 0.51 0.68 0.78 0.75 0.79 0.88 0.80 0.84 0.98 1.14 1.24 1.34 1.56 1.69 1.70 1.69 1.74 1.85 1.90 1.87 1.87
0.28 0.31 0.31 0.29 0.28 0.28 0.36 0.35 0.26 0.17 0.15 0.22 0.35 0.53 0.70 0.62 0.63 0.72 0.75 0.73 0.67 0.65 0.50 0.45 0.55 0.71 0.72 0.72 0.74 0.84 0.96 1.10 1.21 1.35 1.49 1.67 1.77 1.85 1.87 1.83 1.96 1.92 1.92 1.99
0.44 0.46 0.40 0.37 0.49 0.56 0.40 0.32 0.31 0.30 0.28 0.29 0.42 0.45 0.61 0.63 0.66 0.78 0.79 0.79 0.65 0.59 0.51 0.50 0.51 0.54 0.60 0.67 0.74 0.90 1.19 1.44 1.49 1.63 1.82 1.92 2.02 1.96 1.94 1.94 1.97 2.06 2.14 2.17
0.39 0.58 0.56 0.54 0.67 0.58 0.49 0.34 0.38 0.43 0.57 0.59 0.68 0.67 0.62 0.61 0.72 0.81 0.70 0.64 0.66 0.57 0.53 0.55 0.60 0.64 0.72 0.79 0.83 1.01 1.25 1.56 1.74 1.79 1.89 2.03 2.13 2.16 2.17 2.17 2.15 2.23 2.35 2.30
0.43 0.59 0.73 0.68 0.82 0.80 0.66 0.50 0.49 0.61 1.08 0.91 0.85 0.89 0.77 0.73 0.89 0.98 0.89 0.81 0.75 0.68 0.64 0.65 0.68 0.82 1.00 1.08 1.10 1.23 1.35 1.50 1.70 1.77 1.88 2.05 2.28 2.33 2.34 2.48 2.57 2.53 2.47 2.32
0.75 0.81 0.84 0.83 0.90 0.97 0.80 0.72 0.74 1.18 1.49 1.14 0.97 0.96 0.96 1.07 1.12 1.07 0.93 0.92 0.84 0.74 0.75 0.73 0.76 0.92 1.16 1.30 1.33 1.43 1.60 1.69 1.71 1.79 1.94 2.12 2.30 2.38 2.45 2.62 2.70 2.66 2.60 2.55
0.96 1.02 1.01 1.01 1.20 1.37 0.93 0.88 1.31 1.59 1.33 1.32 1.31 1.27 1.17 1.14 1.10 1.05 0.94 0.91 0.85 0.80 0.85 0.88 0.93 1.09 1.30 1.48 1.45 1.52 1.62 1.66 1.71 1.72 1.86 2.00 2.15 2.18 2.27 2.53 2.62 2.69 2.69 2.62
1.06 1.16 1.23 1.36 1.48 1.35 1.11 1.18 1.35 1.48 1.63 1.53 1.43 1.45 1.26 1.25 1.14 1.05 0.97 0.92 0.87 0.83 0.89 0.96 1.03 1.20 1.45 1.61 1.65 1.74 1.64 1.71 1.76 1.78 1.92 2.08 2.16 2.21 2.31 2.42 2.46 2.54 2.58 2.51
1.30 1.15 1.35 1.61 1.64 1.52 1.36 1.19 1.10 1.23 1.34 1.33 1.31 1.30 1.26 1.22 1.16 1.07 0.98 0.91 0.90 0.89 0.84 0.90 1.02 1.11 1.21 1.40 1.60 1.73 1.77 1.81 1.82 1.85 1.93 2.03 2.14 2.16 2.23 2.34 2.43 2.53 2.62 2.68
1.51 1.33 1.54 1.84 1.73 1.60 1.56 1.41 1.29 1.36 1.43 1.35 1.28 1.25 1.26 1.22 1.16 1.01 0.98 0.96 0.94 0.92 0.88 0.91 1.00 1.03 1.09 1.18 1.33 1.42 1.55 1.68 1.73 1.78 1.86 1.90 1.96 2.07 2.17 2.21 2.30 2.28 2.37 2.39
1.57 1.57 1.83 2.15 1.86 1.71 1.65 1.50 1.37 1.42 1.40 1.49 1.57 1.53 1.31 1.20 1.29 1.20 1.08 0.98 0.96 0.97 0.96 0.99 1.02 1.02 1.04 1.11 1.27 1.39 1.49 1.63 1.77 1.84 1.87 1.82 1.78 1.87 1.94 2.02 2.02 2.03 1.95 1.94